Regional Weather Roundup
Issued by NWS

Home | Current Version | Previous Version | Graphics & Text | Print | Product List | Glossary Off
Versions: 1 2 3 4 5 6 7 8 9 10 11 12 13 14 15 16 17 18 19 20 21 22 23 24 25 26 27 28 29 30 31 32 33 34 35 36 37 38 39 40 41 42 43 44 45 46 47 48 49 50

000
ASUS43 KFSD 270310
RWRSD

WEATHER ROUNDUP FOR SOUTH DAKOTA
NATIONAL WEATHER SERVICE SIOUX FALLS SD
1000 PM CDT THU MAR 26 2015

NOTE: "FAIR" INDICATES FEW OR NO CLOUDS BELOW 12,000 FEET WITH NO
SIGNIFICANT WEATHER AND/OR OBSTRUCTIONS TO VISIBILITY.


SDZ001>005-009-010-012>017-270400-
NORTHWEST AND NORTH CENTRAL SOUTH DAKOTA

CITY           SKY/WX    TMP DP  RH WIND       PRES   REMARKS
BUFFALO          N/A     37  32  82 SE10      30.09R
FAITH            N/A     33  26  75 SE7       30.20R WCI  27
MOBRIDGE       CLOUDY    33  18  53 E9        30.21S WCI  25
$$

SDZ012>016-024>037-041>051-057-063-072>074-270400-
SOUTHWEST AND SOUTH CENTRAL SOUTH DAKOTA

CITY           SKY/WX    TMP DP  RH WIND       PRES   REMARKS
RAPID CTY ARPT CLOUDY    35  27  72 SE10      30.16R WCI  27
PIERRE         CLOUDY    31  28  89 CALM      30.23R
CUSTER         CLOUDY    35  26  69 E3        30.11R
ELLSWORTH AFB  MOCLDY    36  28  73 SE10      30.15R
PHILIP         CLOUDY    32  25  75 E5        30.22R WCI  27
PINE RIDGE     CLOUDY    40  27  59 E6        30.16R
SPEARFISH      CLOUDY    41  32  70 W7        30.13S
WINNER         MOCLDY    34  29  82 W3        30.24R
$$

SDZ004>011-016>023-039-040-270400-
NORTHEAST SOUTH DAKOTA

CITY           SKY/WX    TMP DP  RH WIND       PRES   REMARKS
ABERDEEN       CLEAR     24  13  62 NE8       30.28R WCI  15
WATERTOWN      CLEAR     23  12  62 N12       30.23R WCI  12
SISSETON         N/A     23  15  71 N9        30.28R WCI  13
$$

SDZ017-020-022-023-036>040-048>070-270400-
SOUTHEAST SOUTH DAKOTA

CITY           SKY/WX    TMP DP  RH WIND       PRES   REMARKS
SIOUX FALLS    CLEAR     25  17  72 N7        30.23R WCI  17
HURON          CLEAR     24  13  62 NE6       30.26R WCI  17
CHAMBERLAIN    CLOUDY    33  26  73 NE3       30.25R
MITCHELL       CLEAR     28  17  63 NE10      30.26R WCI  19
YANKTON        CLOUDY    34  21  60 N8        30.24R WCI  27
$$

ABBREVIATIONS USED IN REMARKS
   TC - TEMPERATURE IN CELSIUS
  WCI - WIND CHILL INDEX
   HX - HEAT INDEX
  VSB - VISIBILITY




USA.gov is the U.S. government's official web portal to all federal, state and local government web resources and services.